Year,Month,Day,Hour,Minute,Value (Times are PST for temperature in C)
2010,08,27,00,00,14.10
2010,08,27,00,01,14.10
2010,08,27,00,02,14.10
2010,08,27,00,03,14.10
2010,08,27,00,04,14.10
2010,08,27,00,05,14.10
2010,08,27,00,06,14.10
2010,08,27,00,07,14.10
2010,08,27,00,08,14.10
2010,08,27,00,09,14.10
2010,08,27,00,10,14.10
2010,08,27,00,11,14.10
2010,08,27,00,12,14.10
2010,08,27,00,13,14.10
2010,08,27,00,14,14.10
2010,08,27,00,15,14.10
2010,08,27,00,16,14.10
2010,08,27,00,17,14.10
2010,08,27,00,18,14.10
2010,08,27,00,19,14.00
2010,08,27,00,20,14.00
2010,08,27,00,21,14.00
2010,08,27,00,22,14.00
2010,08,27,00,23,14.00
2010,08,27,00,24,14.00
2010,08,27,00,25,14.00
2010,08,27,00,26,14.00
2010,08,27,00,27,14.00
2010,08,27,00,28,14.00
2010,08,27,00,29,14.00
2010,08,27,00,30,14.00
2010,08,27,00,31,14.00
2010,08,27,00,32,13.90
2010,08,27,00,33,13.90
2010,08,27,00,34,13.90
2010,08,27,00,35,13.90
2010,08,27,00,36,13.90
2010,08,27,00,37,13.90
2010,08,27,00,38,13.90
2010,08,27,00,39,13.90
2010,08,27,00,40,13.90
2010,08,27,00,41,13.90
2010,08,27,00,42,13.90
2010,08,27,00,43,13.90
2010,08,27,00,44,13.90
2010,08,27,00,45,13.90
2010,08,27,00,46,13.90
2010,08,27,00,47,13.90
2010,08,27,00,48,13.90
2010,08,27,00,49,13.90
2010,08,27,00,50,13.90
2010,08,27,00,51,13.90
2010,08,27,00,52,13.90
2010,08,27,00,53,14.00
2010,08,27,00,54,13.90
2010,08,27,00,55,13.90
2010,08,27,00,56,13.90
2010,08,27,00,57,13.90
2010,08,27,00,58,13.90
2010,08,27,00,59,13.90
2010,08,27,01,00,13.90
2010,08,27,01,01,13.90
2010,08,27,01,02,13.90
2010,08,27,01,03,13.90
2010,08,27,01,04,13.90
2010,08,27,01,05,13.90
2010,08,27,01,06,13.90
2010,08,27,01,07,13.90
2010,08,27,01,08,13.90
2010,08,27,01,09,13.90
2010,08,27,01,10,13.90
2010,08,27,01,11,13.90
2010,08,27,01,12,13.90
2010,08,27,01,13,13.90
2010,08,27,01,14,13.90
2010,08,27,01,15,13.90
2010,08,27,01,16,13.90
2010,08,27,01,17,13.90
2010,08,27,01,18,13.90
2010,08,27,01,19,13.90
2010,08,27,01,20,13.90
2010,08,27,01,21,13.90
2010,08,27,01,22,13.90
2010,08,27,01,23,13.90
2010,08,27,01,24,13.90
2010,08,27,01,25,13.90
2010,08,27,01,26,13.90
2010,08,27,01,27,13.90
2010,08,27,01,28,13.90
2010,08,27,01,29,13.90
2010,08,27,01,30,13.90
2010,08,27,01,31,13.90
2010,08,27,01,32,13.90
2010,08,27,01,33,13.90
2010,08,27,01,34,13.90
2010,08,27,01,35,13.90
2010,08,27,01,36,13.90
2010,08,27,01,37,13.90
2010,08,27,01,38,13.90
2010,08,27,01,39,13.90
2010,08,27,01,40,13.90
2010,08,27,01,41,13.80
2010,08,27,01,42,13.80
2010,08,27,01,43,13.80
2010,08,27,01,44,13.80
2010,08,27,01,45,13.80
2010,08,27,01,46,13.80
2010,08,27,01,47,13.80
2010,08,27,01,48,13.80
2010,08,27,01,49,13.80
2010,08,27,01,50,13.80
2010,08,27,01,51,13.80
2010,08,27,01,52,13.80
2010,08,27,01,53,13.80
2010,08,27,01,54,13.80
2010,08,27,01,55,13.80
2010,08,27,01,56,13.80
2010,08,27,01,57,13.80
2010,08,27,01,58,13.90
2010,08,27,01,59,13.80
2010,08,27,02,00,13.80
2010,08,27,02,01,13.80
2010,08,27,02,02,13.80
2010,08,27,02,03,13.80
2010,08,27,02,04,13.80
2010,08,27,02,05,13.80
2010,08,27,02,06,13.80
2010,08,27,02,07,13.80
2010,08,27,02,08,13.80
2010,08,27,02,09,13.80
2010,08,27,02,10,13.80
2010,08,27,02,11,13.80
2010,08,27,02,12,13.80
2010,08,27,02,13,13.80
2010,08,27,02,14,13.80
2010,08,27,02,15,13.80
2010,08,27,02,16,13.80
2010,08,27,02,17,13.80
2010,08,27,02,18,13.70
2010,08,27,02,19,13.70
2010,08,27,02,20,13.70
2010,08,27,02,21,13.70
2010,08,27,02,22,13.70
2010,08,27,02,23,13.70
2010,08,27,02,24,13.70
2010,08,27,02,25,13.70
2010,08,27,02,26,13.70
2010,08,27,02,27,13.70
2010,08,27,02,28,13.70
2010,08,27,02,29,13.70
2010,08,27,02,30,13.60
2010,08,27,02,31,13.60
2010,08,27,02,32,13.60
2010,08,27,02,33,13.60
2010,08,27,02,34,13.60
2010,08,27,02,35,13.60
2010,08,27,02,36,13.60
2010,08,27,02,37,13.60
2010,08,27,02,38,13.60
2010,08,27,02,39,13.60
2010,08,27,02,40,13.60
2010,08,27,02,41,13.60
2010,08,27,02,42,13.60
2010,08,27,02,43,13.60
2010,08,27,02,44,13.60
2010,08,27,02,45,13.60
2010,08,27,02,46,13.60
2010,08,27,02,47,13.60
2010,08,27,02,48,13.60
2010,08,27,02,49,13.70
2010,08,27,02,50,13.70
2010,08,27,02,51,13.70
2010,08,27,02,52,13.70
2010,08,27,02,53,13.70
2010,08,27,02,54,13.70
2010,08,27,02,55,13.70
2010,08,27,02,56,13.70
2010,08,27,02,57,13.70
2010,08,27,02,58,13.70
2010,08,27,02,59,13.70
2010,08,27,03,00,13.70
2010,08,27,03,01,13.70
2010,08,27,03,02,13.70
2010,08,27,03,03,13.70
2010,08,27,03,04,13.60
2010,08,27,03,05,13.60
2010,08,27,03,06,13.60
2010,08,27,03,07,13.60
2010,08,27,03,08,13.60
2010,08,27,03,09,13.60
2010,08,27,03,10,13.60
2010,08,27,03,11,13.50
2010,08,27,03,12,13.50
2010,08,27,03,13,13.50
2010,08,27,03,14,13.40
2010,08,27,03,15,13.40
2010,08,27,03,16,13.40
2010,08,27,03,17,13.40
2010,08,27,03,18,13.40
2010,08,27,03,19,13.40
2010,08,27,03,20,13.30
2010,08,27,03,21,13.30
2010,08,27,03,22,13.30
2010,08,27,03,23,13.30
2010,08,27,03,24,13.30
2010,08,27,03,25,13.30
2010,08,27,03,26,13.30
2010,08,27,03,27,13.30
2010,08,27,03,28,13.20
2010,08,27,03,29,13.20
2010,08,27,03,30,13.20
2010,08,27,03,31,13.20
2010,08,27,03,32,13.20
2010,08,27,03,33,13.10
2010,08,27,03,34,13.10
2010,08,27,03,35,13.10
2010,08,27,03,36,13.10
2010,08,27,03,37,13.00
2010,08,27,03,38,12.90
2010,08,27,03,39,12.90
2010,08,27,03,40,12.90
2010,08,27,03,41,12.80
2010,08,27,03,42,12.80
2010,08,27,03,43,12.80
2010,08,27,03,44,12.80
2010,08,27,03,45,12.80
2010,08,27,03,46,12.80
2010,08,27,03,47,12.80
2010,08,27,03,48,12.80
2010,08,27,03,49,12.80
2010,08,27,03,50,12.80
2010,08,27,03,51,12.80
2010,08,27,03,52,12.80
2010,08,27,03,53,12.80
2010,08,27,03,54,12.80
2010,08,27,03,55,12.80
2010,08,27,03,56,12.70
2010,08,27,03,57,12.70
2010,08,27,03,58,12.70
2010,08,27,03,59,12.70
2010,08,27,04,00,12.60
2010,08,27,04,01,12.60
2010,08,27,04,02,12.60
2010,08,27,04,03,12.50
2010,08,27,04,04,12.50
2010,08,27,04,05,12.40
2010,08,27,04,06,12.40
2010,08,27,04,07,12.30
2010,08,27,04,08,12.30
2010,08,27,04,09,12.30
2010,08,27,04,10,12.30
2010,08,27,04,11,12.30
2010,08,27,04,12,12.20
2010,08,27,04,13,12.20
2010,08,27,04,14,12.20
2010,08,27,04,15,12.20
2010,08,27,04,16,12.20
2010,08,27,04,17,12.20
2010,08,27,04,18,12.10
2010,08,27,04,19,12.10
2010,08,27,04,20,12.10
2010,08,27,04,21,12.10
2010,08,27,04,22,12.10
2010,08,27,04,23,12.10
2010,08,27,04,24,12.10
2010,08,27,04,25,12.10
2010,08,27,04,26,12.10
2010,08,27,04,27,12.10
2010,08,27,04,28,12.00
2010,08,27,04,29,12.00
2010,08,27,04,30,12.00
2010,08,27,04,31,12.00
2010,08,27,04,32,12.00
2010,08,27,04,33,12.00
2010,08,27,04,34,12.00
2010,08,27,04,35,12.10
2010,08,27,04,36,12.10
2010,08,27,04,37,12.10
2010,08,27,04,38,12.10
2010,08,27,04,39,12.10
2010,08,27,04,40,12.10
2010,08,27,04,41,12.10
2010,08,27,04,42,12.20
2010,08,27,04,43,12.20
2010,08,27,04,44,12.20
2010,08,27,04,45,12.20
2010,08,27,04,46,12.20
2010,08,27,04,47,12.30
2010,08,27,04,48,12.30
2010,08,27,04,49,12.30
2010,08,27,04,50,12.30
2010,08,27,04,51,12.30
2010,08,27,04,52,12.30
2010,08,27,04,53,12.30
2010,08,27,04,54,12.30
2010,08,27,04,55,12.30
2010,08,27,04,56,12.30
2010,08,27,04,57,12.30
2010,08,27,04,58,12.30
2010,08,27,04,59,12.30
2010,08,27,05,00,12.30
2010,08,27,05,01,12.30
2010,08,27,05,02,12.30
2010,08,27,05,03,12.30
2010,08,27,05,04,12.30
2010,08,27,05,05,12.30
2010,08,27,05,06,12.30
2010,08,27,05,07,12.30
2010,08,27,05,08,12.30
2010,08,27,05,09,12.30
2010,08,27,05,10,12.30
2010,08,27,05,11,12.30
2010,08,27,05,12,12.30
2010,08,27,05,13,12.30
2010,08,27,05,14,12.20
2010,08,27,05,15,12.20
2010,08,27,05,16,12.20
2010,08,27,05,17,12.20
2010,08,27,05,18,12.20
2010,08,27,05,19,12.20
2010,08,27,05,20,12.20
2010,08,27,05,21,12.20
2010,08,27,05,22,12.20
2010,08,27,05,23,12.10
2010,08,27,05,24,12.10
2010,08,27,05,25,12.10
2010,08,27,05,26,12.10
2010,08,27,05,27,12.10
2010,08,27,05,28,12.10
2010,08,27,05,29,12.10
2010,08,27,05,30,12.20
2010,08,27,05,31,12.20
2010,08,27,05,32,12.20
2010,08,27,05,33,12.20
2010,08,27,05,34,12.20
2010,08,27,05,35,12.20
2010,08,27,05,36,12.20
2010,08,27,05,37,12.10
2010,08,27,05,38,12.10
2010,08,27,05,39,12.10
2010,08,27,05,40,12.10
2010,08,27,05,41,12.10
2010,08,27,05,42,12.10
2010,08,27,05,43,12.00
2010,08,27,05,44,12.00
2010,08,27,05,45,12.00
2010,08,27,05,46,12.00
2010,08,27,05,47,12.10
2010,08,27,05,48,12.10
2010,08,27,05,49,12.10
2010,08,27,05,50,12.00
2010,08,27,05,51,12.00
2010,08,27,05,52,12.00
2010,08,27,05,53,12.10
2010,08,27,05,54,12.10
2010,08,27,05,55,12.10
2010,08,27,05,56,12.10
2010,08,27,05,57,12.10
2010,08,27,05,58,12.10
2010,08,27,05,59,12.10
2010,08,27,06,00,12.10
2010,08,27,06,01,12.10
2010,08,27,06,02,12.10
2010,08,27,06,03,12.10
2010,08,27,06,04,12.20
2010,08,27,06,05,12.20
2010,08,27,06,06,12.30
2010,08,27,06,07,12.30
2010,08,27,06,08,12.40
2010,08,27,06,09,12.40
2010,08,27,06,10,12.40
2010,08,27,06,11,12.40
2010,08,27,06,12,12.50
2010,08,27,06,13,12.50
2010,08,27,06,14,12.50
2010,08,27,06,15,12.50
2010,08,27,06,16,12.50
2010,08,27,06,17,12.50
2010,08,27,06,18,12.50
2010,08,27,06,19,12.50
2010,08,27,06,20,12.50
2010,08,27,06,21,12.50
2010,08,27,06,22,12.50
2010,08,27,06,23,12.40
2010,08,27,06,24,12.40
2010,08,27,06,25,12.40
2010,08,27,06,26,12.40
2010,08,27,06,27,12.30
2010,08,27,06,28,12.30
2010,08,27,06,29,12.30
2010,08,27,06,30,12.20
2010,08,27,06,31,12.20
2010,08,27,06,32,12.20
2010,08,27,06,33,12.20
2010,08,27,06,34,12.10
2010,08,27,06,35,12.10
2010,08,27,06,36,12.10
2010,08,27,06,37,12.10
2010,08,27,06,38,12.00
2010,08,27,06,39,12.00
2010,08,27,06,40,12.00
2010,08,27,06,41,11.90
2010,08,27,06,42,11.90
2010,08,27,06,43,11.90
2010,08,27,06,44,11.90
2010,08,27,06,45,11.80
2010,08,27,06,46,11.80
2010,08,27,06,47,11.80
2010,08,27,06,48,11.80
2010,08,27,06,49,11.80
2010,08,27,06,50,11.80
2010,08,27,06,51,11.80
2010,08,27,06,52,11.80
2010,08,27,06,53,11.80
2010,08,27,06,54,11.80
2010,08,27,06,55,11.70
2010,08,27,06,56,11.80
2010,08,27,06,57,11.80
2010,08,27,06,58,11.80
2010,08,27,06,59,11.80
2010,08,27,07,00,11.80
2010,08,27,07,01,11.80
2010,08,27,07,02,11.80
2010,08,27,07,03,11.70
2010,08,27,07,04,11.70
2010,08,27,07,05,11.80
2010,08,27,07,06,11.80
2010,08,27,07,07,11.80
2010,08,27,07,08,11.80
2010,08,27,07,09,11.80
2010,08,27,07,10,11.80
2010,08,27,07,11,11.80
2010,08,27,07,12,11.80
2010,08,27,07,13,11.80
2010,08,27,07,14,11.80
2010,08,27,07,15,11.80
2010,08,27,07,16,11.80
2010,08,27,07,17,11.80
2010,08,27,07,18,11.80
2010,08,27,07,19,11.80
2010,08,27,07,20,11.80
2010,08,27,07,21,11.80
2010,08,27,07,22,11.80
2010,08,27,07,23,11.80
2010,08,27,07,24,11.90
2010,08,27,07,25,11.90
2010,08,27,07,26,11.90
2010,08,27,07,27,11.90
2010,08,27,07,28,11.90
2010,08,27,07,29,11.90
2010,08,27,07,30,11.90
2010,08,27,07,31,11.90
2010,08,27,07,32,11.90
2010,08,27,07,33,12.00
2010,08,27,07,34,12.00
2010,08,27,07,35,12.00
2010,08,27,07,36,12.10
2010,08,27,07,37,12.10
2010,08,27,07,38,12.10
2010,08,27,07,39,12.10
2010,08,27,07,40,12.10
2010,08,27,07,41,12.10
2010,08,27,07,42,12.10
2010,08,27,07,43,12.10
2010,08,27,07,44,12.20
2010,08,27,07,45,12.20
2010,08,27,07,46,12.20
2010,08,27,07,47,12.20
2010,08,27,07,48,12.20
2010,08,27,07,49,12.30
2010,08,27,07,50,12.30
2010,08,27,07,51,12.30
2010,08,27,07,52,12.30
2010,08,27,07,53,12.30
2010,08,27,07,54,12.30
2010,08,27,07,55,12.40
2010,08,27,07,56,12.40
2010,08,27,07,57,12.40
2010,08,27,07,58,12.40
2010,08,27,07,59,12.40
2010,08,27,08,00,12.40
2010,08,27,08,01,12.50
2010,08,27,08,02,12.50
2010,08,27,08,03,12.50
2010,08,27,08,04,12.60
2010,08,27,08,05,12.60
2010,08,27,08,06,12.60
2010,08,27,08,07,12.60
2010,08,27,08,08,12.70
2010,08,27,08,09,12.70
2010,08,27,08,10,12.70
2010,08,27,08,11,12.70
2010,08,27,08,12,12.80
2010,08,27,08,13,12.80
2010,08,27,08,14,12.80
2010,08,27,08,15,12.80
2010,08,27,08,16,12.80
2010,08,27,08,17,12.80
2010,08,27,08,18,12.90
2010,08,27,08,19,12.90
2010,08,27,08,20,12.90
2010,08,27,08,21,12.90
2010,08,27,08,22,13.00
2010,08,27,08,23,13.00
2010,08,27,08,24,13.00
2010,08,27,08,25,13.10
2010,08,27,08,26,13.10
2010,08,27,08,27,13.10
2010,08,27,08,28,13.20
2010,08,27,08,29,13.20
2010,08,27,08,30,13.20
2010,08,27,08,31,13.20
2010,08,27,08,32,13.30
2010,08,27,08,33,13.30
2010,08,27,08,34,13.30
2010,08,27,08,35,13.30
2010,08,27,08,36,13.40
2010,08,27,08,37,13.40
2010,08,27,08,38,13.40
2010,08,27,08,39,13.50
2010,08,27,08,40,13.50
2010,08,27,08,41,13.60
2010,08,27,08,42,13.60
2010,08,27,08,43,13.60
2010,08,27,08,44,13.60
2010,08,27,08,45,13.70
2010,08,27,08,46,13.70
2010,08,27,08,47,13.70
2010,08,27,08,48,13.80
2010,08,27,08,49,13.80
2010,08,27,08,50,13.80
2010,08,27,08,51,13.90
2010,08,27,08,52,13.90
2010,08,27,08,53,13.90
2010,08,27,08,54,14.00
2010,08,27,08,55,14.00
2010,08,27,08,56,14.10
2010,08,27,08,57,14.10
2010,08,27,08,58,14.20
2010,08,27,08,59,14.20
2010,08,27,09,00,14.20
2010,08,27,09,01,14.30
2010,08,27,09,02,14.30
2010,08,27,09,03,14.40
2010,08,27,09,04,14.50
2010,08,27,09,05,14.50
2010,08,27,09,06,14.60
2010,08,27,09,07,14.70
2010,08,27,09,08,14.80
2010,08,27,09,09,14.80
2010,08,27,09,10,14.80
2010,08,27,09,11,14.90
2010,08,27,09,12,15.00
2010,08,27,09,13,15.00
2010,08,27,09,14,15.00
2010,08,27,09,15,15.00
2010,08,27,09,16,15.00
2010,08,27,09,17,15.00
2010,08,27,09,18,15.10
2010,08,27,09,19,15.20
2010,08,27,09,20,15.30
2010,08,27,09,21,15.40
2010,08,27,09,22,15.40
2010,08,27,09,23,15.50
2010,08,27,09,24,15.60
2010,08,27,09,25,15.60
2010,08,27,09,26,15.70
2010,08,27,09,27,15.70
2010,08,27,09,28,15.80
2010,08,27,09,29,15.80
2010,08,27,09,30,15.90
2010,08,27,09,31,16.00
2010,08,27,09,32,16.00
2010,08,27,09,33,16.10
2010,08,27,09,34,16.10
2010,08,27,09,35,16.10
2010,08,27,09,36,16.10
2010,08,27,09,37,16.00
2010,08,27,09,38,15.90
2010,08,27,09,39,15.90
2010,08,27,09,40,15.90
2010,08,27,09,41,15.90
2010,08,27,09,42,15.90
2010,08,27,09,43,16.00
2010,08,27,09,44,16.00
2010,08,27,09,45,16.10
2010,08,27,09,46,16.10
2010,08,27,09,47,16.20
2010,08,27,09,48,16.20
2010,08,27,09,49,16.30
2010,08,27,09,50,16.40
2010,08,27,09,51,16.40
2010,08,27,09,52,16.50
2010,08,27,09,53,16.60
2010,08,27,09,54,16.70
2010,08,27,09,55,16.70
2010,08,27,09,56,16.60
2010,08,27,09,57,16.60
2010,08,27,09,58,16.60
2010,08,27,09,59,16.70
2010,08,27,10,00,16.70
2010,08,27,10,01,16.70
2010,08,27,10,02,16.70
2010,08,27,10,03,16.80
2010,08,27,10,04,16.90
2010,08,27,10,05,17.00
2010,08,27,10,06,17.10
2010,08,27,10,07,17.20
2010,08,27,10,08,17.30
2010,08,27,10,09,17.30
2010,08,27,10,10,17.30
2010,08,27,10,11,17.30
2010,08,27,10,12,17.30
2010,08,27,10,13,17.30
2010,08,27,10,14,17.30
2010,08,27,10,15,17.30
2010,08,27,10,16,17.30
2010,08,27,10,17,17.30
2010,08,27,10,18,17.30
2010,08,27,10,19,17.30
2010,08,27,10,20,17.30
2010,08,27,10,21,17.40
2010,08,27,10,22,17.40
2010,08,27,10,23,17.60
2010,08,27,10,24,17.60
2010,08,27,10,25,17.70
2010,08,27,10,26,17.80
2010,08,27,10,27,17.80
2010,08,27,10,28,17.70
2010,08,27,10,29,17.60
2010,08,27,10,30,17.40
2010,08,27,10,31,17.40
2010,08,27,10,32,17.40
2010,08,27,10,33,17.50
2010,08,27,10,34,17.60
2010,08,27,10,35,17.60
2010,08,27,10,36,17.70
2010,08,27,10,37,17.70
2010,08,27,10,38,17.70
2010,08,27,10,39,17.70
2010,08,27,10,40,17.70
2010,08,27,10,41,17.70
2010,08,27,10,42,17.70
2010,08,27,10,43,17.70
2010,08,27,10,44,17.70
2010,08,27,10,45,17.70
2010,08,27,10,46,17.80
2010,08,27,10,47,17.90
2010,08,27,10,48,18.00
2010,08,27,10,49,18.10
2010,08,27,10,50,18.10
2010,08,27,10,51,18.10
2010,08,27,10,52,18.10
2010,08,27,10,53,18.10
2010,08,27,10,54,18.20
2010,08,27,10,55,18.30
2010,08,27,10,56,18.30
2010,08,27,10,57,18.40
2010,08,27,10,58,18.40
2010,08,27,10,59,18.50
2010,08,27,11,00,18.70
2010,08,27,11,01,18.80
2010,08,27,11,02,18.80
2010,08,27,11,03,18.80
2010,08,27,11,04,18.80
2010,08,27,11,05,18.80
2010,08,27,11,06,18.80
2010,08,27,11,07,18.70
2010,08,27,11,08,18.70
2010,08,27,11,09,18.70
2010,08,27,11,10,18.70
2010,08,27,11,11,18.70
2010,08,27,11,12,18.70
2010,08,27,11,13,18.60
2010,08,27,11,14,18.60
2010,08,27,11,15,18.60
2010,08,27,11,16,18.60
2010,08,27,11,17,18.60
2010,08,27,11,18,18.50
2010,08,27,11,19,18.50
2010,08,27,11,20,18.50
2010,08,27,11,21,18.60
2010,08,27,11,22,18.70
2010,08,27,11,23,18.70
2010,08,27,11,24,18.80
2010,08,27,11,25,18.80
2010,08,27,11,26,18.90
2010,08,27,11,27,18.90
2010,08,27,11,28,19.00
2010,08,27,11,29,19.10
2010,08,27,11,30,19.10
2010,08,27,11,31,19.20
2010,08,27,11,32,19.20
2010,08,27,11,33,19.20
2010,08,27,11,34,19.30
2010,08,27,11,35,19.40
2010,08,27,11,36,19.40
2010,08,27,11,37,19.40
2010,08,27,11,38,19.50
2010,08,27,11,39,19.60
2010,08,27,11,40,19.60
2010,08,27,11,41,19.60
2010,08,27,11,42,19.60
2010,08,27,11,43,19.60
2010,08,27,11,44,19.50
2010,08,27,11,45,19.40
2010,08,27,11,46,19.40
2010,08,27,11,47,19.40
2010,08,27,11,48,19.50
2010,08,27,11,49,19.50
2010,08,27,11,50,19.60
2010,08,27,11,51,19.70
2010,08,27,11,52,19.80
2010,08,27,11,53,19.80
2010,08,27,11,54,19.90
2010,08,27,11,55,19.90
2010,08,27,11,56,19.70
2010,08,27,11,57,19.50
2010,08,27,11,58,19.40
2010,08,27,11,59,19.30
2010,08,27,12,00,19.30
2010,08,27,12,01,19.30
2010,08,27,12,02,19.20
2010,08,27,12,03,19.10
2010,08,27,12,04,19.00
2010,08,27,12,05,18.90
2010,08,27,12,06,18.90
2010,08,27,12,07,18.80
2010,08,27,12,08,18.70
2010,08,27,12,09,18.50
2010,08,27,12,10,18.40
2010,08,27,12,11,18.40
2010,08,27,12,12,18.20
2010,08,27,12,13,18.20
2010,08,27,12,14,18.20
2010,08,27,12,15,18.20
2010,08,27,12,16,18.20
2010,08,27,12,17,18.20
2010,08,27,12,18,18.20
2010,08,27,12,19,18.20
2010,08,27,12,20,18.20
2010,08,27,12,21,18.20
2010,08,27,12,22,18.00
2010,08,27,12,23,17.90
2010,08,27,12,24,17.90
2010,08,27,12,25,17.80
2010,08,27,12,26,17.80
2010,08,27,12,27,17.70
2010,08,27,12,28,17.70
2010,08,27,12,29,17.70
2010,08,27,12,30,17.80
2010,08,27,12,31,17.80
2010,08,27,12,32,17.90
2010,08,27,12,33,18.00
2010,08,27,12,34,18.10
2010,08,27,12,35,18.20
2010,08,27,12,36,18.20
2010,08,27,12,37,18.20
2010,08,27,12,38,18.30
2010,08,27,12,39,18.40
2010,08,27,12,40,18.40
2010,08,27,12,41,18.40
2010,08,27,12,42,18.30
2010,08,27,12,43,18.40
2010,08,27,12,44,18.40
2010,08,27,12,45,18.30
2010,08,27,12,46,18.30
2010,08,27,12,47,18.20
2010,08,27,12,48,18.10
2010,08,27,12,49,18.10
2010,08,27,12,50,18.00
2010,08,27,12,51,17.90
2010,08,27,12,52,17.90
2010,08,27,12,53,17.80
2010,08,27,12,54,17.80
2010,08,27,12,55,17.80
2010,08,27,12,56,17.80
2010,08,27,12,57,17.70
2010,08,27,12,58,17.80
2010,08,27,12,59,17.80
2010,08,27,13,00,17.80
2010,08,27,13,01,17.80
2010,08,27,13,02,17.80
2010,08,27,13,03,17.80
2010,08,27,13,04,17.80
2010,08,27,13,05,17.90
2010,08,27,13,06,17.90
2010,08,27,13,07,17.80
2010,08,27,13,08,17.80
2010,08,27,13,09,17.80
2010,08,27,13,10,17.80
2010,08,27,13,11,17.90
2010,08,27,13,12,17.90
2010,08,27,13,13,18.00
2010,08,27,13,14,18.00
2010,08,27,13,15,18.10
2010,08,27,13,16,18.10
2010,08,27,13,17,18.20
2010,08,27,13,18,18.20
2010,08,27,13,19,18.20
2010,08,27,13,20,18.30
2010,08,27,13,21,18.40
2010,08,27,13,22,18.40
2010,08,27,13,23,18.50
2010,08,27,13,24,18.60
2010,08,27,13,25,18.60
2010,08,27,13,26,18.70
2010,08,27,13,27,18.80
2010,08,27,13,28,18.80
2010,08,27,13,29,18.80
2010,08,27,13,30,18.70
2010,08,27,13,31,18.60
2010,08,27,13,32,18.50
2010,08,27,13,33,18.40
2010,08,27,13,34,18.40
2010,08,27,13,35,18.30
2010,08,27,13,36,18.30
2010,08,27,13,37,18.40
2010,08,27,13,38,18.40
2010,08,27,13,39,18.40
2010,08,27,13,40,18.50
2010,08,27,13,41,18.50
2010,08,27,13,42,18.60
2010,08,27,13,43,18.80
2010,08,27,13,44,18.90
2010,08,27,13,45,18.90
2010,08,27,13,46,19.00
2010,08,27,13,47,19.10
2010,08,27,13,48,19.10
2010,08,27,13,49,19.10
2010,08,27,13,50,19.10
2010,08,27,13,51,19.10
2010,08,27,13,52,19.10
2010,08,27,13,53,19.20
2010,08,27,13,54,19.20
2010,08,27,13,55,19.20
2010,08,27,13,56,19.30
2010,08,27,13,57,19.30
2010,08,27,13,58,19.30
2010,08,27,13,59,19.30
2010,08,27,14,00,19.30
2010,08,27,14,01,19.40
2010,08,27,14,02,19.40
2010,08,27,14,03,19.40
2010,08,27,14,04,19.40
2010,08,27,14,05,19.40
2010,08,27,14,06,19.40
2010,08,27,14,07,19.40
2010,08,27,14,08,19.40
2010,08,27,14,09,19.40
2010,08,27,14,10,19.40
2010,08,27,14,11,19.30
2010,08,27,14,12,19.30
2010,08,27,14,13,19.20
2010,08,27,14,14,19.10
2010,08,27,14,15,19.00
2010,08,27,14,16,19.00
2010,08,27,14,17,19.00
2010,08,27,14,18,19.00
2010,08,27,14,19,19.00
2010,08,27,14,20,19.00
2010,08,27,14,21,19.00
2010,08,27,14,22,19.00
2010,08,27,14,23,18.90
2010,08,27,14,24,18.90
2010,08,27,14,25,18.90
2010,08,27,14,26,19.00
2010,08,27,14,27,19.10
2010,08,27,14,28,19.20
2010,08,27,14,29,19.30
2010,08,27,14,30,19.30
2010,08,27,14,31,19.30
2010,08,27,14,32,19.30
2010,08,27,14,33,19.20
2010,08,27,14,34,19.10
2010,08,27,14,35,19.10
2010,08,27,14,36,19.00
2010,08,27,14,37,19.10
2010,08,27,14,38,19.10
2010,08,27,14,39,19.30
2010,08,27,14,40,19.30
2010,08,27,14,41,19.40
2010,08,27,14,42,19.50
2010,08,27,14,43,19.50
2010,08,27,14,44,19.40
2010,08,27,14,45,19.40
2010,08,27,14,46,19.40
2010,08,27,14,47,19.40
2010,08,27,14,48,19.50
2010,08,27,14,49,19.50
2010,08,27,14,50,19.60
2010,08,27,14,51,19.70
2010,08,27,14,52,19.80
2010,08,27,14,53,19.90
2010,08,27,14,54,19.90
2010,08,27,14,55,20.00
2010,08,27,14,56,20.00
2010,08,27,14,57,20.00
2010,08,27,14,58,19.90
2010,08,27,14,59,19.90
2010,08,27,15,00,20.00
2010,08,27,15,01,20.10
2010,08,27,15,02,20.10
2010,08,27,15,03,20.20
2010,08,27,15,04,20.10
2010,08,27,15,05,20.10
2010,08,27,15,06,20.10
2010,08,27,15,07,20.20
2010,08,27,15,08,20.20
2010,08,27,15,09,20.20
2010,08,27,15,10,20.20
2010,08,27,15,11,20.20
2010,08,27,15,12,20.20
2010,08,27,15,13,20.30
2010,08,27,15,14,20.20
2010,08,27,15,15,20.10
2010,08,27,15,16,19.90
2010,08,27,15,17,19.70
2010,08,27,15,18,19.60
2010,08,27,15,19,19.60
2010,08,27,15,20,19.60
2010,08,27,15,21,19.70
2010,08,27,15,22,19.70
2010,08,27,15,23,19.70
2010,08,27,15,24,19.70
2010,08,27,15,25,19.70
2010,08,27,15,26,19.60
2010,08,27,15,27,19.60
2010,08,27,15,28,19.70
2010,08,27,15,29,19.80
2010,08,27,15,30,19.80
2010,08,27,15,31,19.90
2010,08,27,15,32,20.00
2010,08,27,15,33,20.10
2010,08,27,15,34,20.20
2010,08,27,15,35,20.20
2010,08,27,15,36,20.20
2010,08,27,15,37,20.30
2010,08,27,15,38,20.30
2010,08,27,15,39,20.30
2010,08,27,15,40,20.30
2010,08,27,15,41,20.30
2010,08,27,15,42,20.30
2010,08,27,15,43,20.30
2010,08,27,15,44,20.20
2010,08,27,15,45,20.20
2010,08,27,15,46,20.20
2010,08,27,15,47,20.30
2010,08,27,15,48,20.30
2010,08,27,15,49,20.30
2010,08,27,15,50,20.40
2010,08,27,15,51,20.40
2010,08,27,15,52,20.40
2010,08,27,15,53,20.40
2010,08,27,15,54,20.40
2010,08,27,15,55,20.50
2010,08,27,15,56,20.50
2010,08,27,15,57,20.50
2010,08,27,15,58,20.60
2010,08,27,15,59,20.50
2010,08,27,16,00,20.40
2010,08,27,16,01,20.30
2010,08,27,16,02,20.20
2010,08,27,16,03,20.10
2010,08,27,16,04,20.00
2010,08,27,16,05,20.00
2010,08,27,16,06,20.00
2010,08,27,16,07,20.10
2010,08,27,16,08,20.20
2010,08,27,16,09,20.10
2010,08,27,16,10,20.10
2010,08,27,16,11,20.00
2010,08,27,16,12,20.00
2010,08,27,16,13,20.00
2010,08,27,16,14,19.90
2010,08,27,16,15,19.90
2010,08,27,16,16,19.80
2010,08,27,16,17,19.80
2010,08,27,16,18,19.70
2010,08,27,16,19,19.60
2010,08,27,16,20,19.50
2010,08,27,16,21,19.40
2010,08,27,16,22,19.40
2010,08,27,16,23,19.30
2010,08,27,16,24,19.20
2010,08,27,16,25,19.20
2010,08,27,16,26,19.00
2010,08,27,16,27,18.80
2010,08,27,16,28,18.60
2010,08,27,16,29,18.50
2010,08,27,16,30,18.30
2010,08,27,16,31,18.20
2010,08,27,16,32,18.00
2010,08,27,16,33,17.80
2010,08,27,16,34,17.70
2010,08,27,16,35,17.60
2010,08,27,16,36,17.50
2010,08,27,16,37,17.40
2010,08,27,16,38,17.40
2010,08,27,16,39,17.30
2010,08,27,16,40,17.30
2010,08,27,16,41,17.20
2010,08,27,16,42,17.10
2010,08,27,16,43,17.00
2010,08,27,16,44,16.90
2010,08,27,16,45,16.80
2010,08,27,16,46,16.80
2010,08,27,16,47,16.70
2010,08,27,16,48,16.70
2010,08,27,16,49,16.60
2010,08,27,16,50,16.50
2010,08,27,16,51,16.50
2010,08,27,16,52,16.40
2010,08,27,16,53,16.40
2010,08,27,16,54,16.40
2010,08,27,16,55,16.40
2010,08,27,16,56,16.40
2010,08,27,16,57,16.40
2010,08,27,16,58,16.50
2010,08,27,16,59,16.50
2010,08,27,17,00,16.60
2010,08,27,17,01,16.70
2010,08,27,17,02,16.90
2010,08,27,17,03,17.00
2010,08,27,17,04,17.10
2010,08,27,17,05,17.20
2010,08,27,17,06,17.30
2010,08,27,17,07,17.30
2010,08,27,17,08,17.30
2010,08,27,17,09,17.30
2010,08,27,17,10,17.30
2010,08,27,17,11,17.30
2010,08,27,17,12,17.40
2010,08,27,17,13,17.50
2010,08,27,17,14,17.60
2010,08,27,17,15,17.70
2010,08,27,17,16,17.80
2010,08,27,17,17,17.90
2010,08,27,17,18,18.00
2010,08,27,17,19,18.10